[[{"header":{"parameterUnit":"m.s-1","parameterCategory":1,"la1":30.2991,"la2":30.254,"lo1":-89.0895,"lo2":-89.0444,"dy":0.0017,"dx":0.0017,"nx":28,"ny":28,"refTime":"2025-07-31T09:00:00:Z","depth":0,"parameterNumber":2,"parameterNumberName":"U-component_of_WINDS"},"data":[0,0,0,0,0,0,0,0,0,0,0,0,0,0,0,0,0,0,0,0,0,0,0,0,0,0,0,0,0,0,0,0,0,0,0,0,0,0,0,0,0,0,0,0,0,0,0,0,0,0,0,0,0,0,0,0,0,0,4.4305,4.4306,0,4.4425,4.4426,4.4427,4.4373,4.437,4.4367,4.4364,4.4483,4.4488,4.4494,0,0,0,0,0,0,0,0,0,0,0,0,0,4.4024,4.4029,4.4305,4.4306,4.4308,4.4424,4.4426,4.4428,4.4374,4.437,4.4366,4.4363,4.4481,4.4488,4.4495,0,0,0,0,0,0,0,0,0,0,0,0,0,4.4145,4.4031,4.4304,4.4295,4.4295,4.4424,4.4426,4.4428,4.4374,4.437,4.4365,4.4361,4.4478,4.4487,4.4496,4.464,0,0,4.4523,4.4527,0,0,0,0,0,0,0,0,4.4138,4.4155,4.4295,4.4296,4.4296,4.4379,4.437,4.4499,4.4375,4.4344,4.4364,4.4359,4.4452,4.4462,4.4495,4.4645,4.465,4.4524,4.4529,4.4533,4.4535,0,0,0,0,0,0,0,4.413,4.415,4.4352,4.4297,4.4298,4.4283,4.4295,4.4394,4.4421,4.4347,4.4343,4.4358,4.4451,4.4486,4.4497,4.4652,4.4523,4.4531,4.4537,4.454,4.4924,4.4929,0,0,0,0,0,0,4.4122,4.4143,4.4348,4.4356,4.4205,4.4292,4.4305,4.4357,4.442,4.4425,4.4362,4.4355,4.4473,4.4487,4.4501,4.4671,4.4533,4.4541,4.4546,4.4919,4.4925,4.493,0,0,0,0,0,0,4.4116,4.4141,4.4343,4.4249,4.4273,4.4301,4.436,4.4362,4.4397,4.4432,4.4436,4.4393,4.447,4.4488,4.4605,4.4674,4.4545,4.4553,4.4913,4.4921,4.4928,4.5014,0,0,0,0,0,0,4.4109,4.4139,4.4196,4.425,4.4278,4.4447,4.4364,4.4367,4.4413,4.4405,4.4462,4.4467,4.4468,4.4592,4.4614,4.4684,4.456,4.4907,4.4917,4.4925,4.5005,4.5023,4.5039,0,0,0,0,0,4.4099,4.4215,4.4199,4.4224,4.435,4.4452,4.4467,4.4468,4.4419,4.4474,4.4496,4.4465,4.4664,4.4605,4.4629,4.4703,4.4903,4.4914,4.4925,4.4998,4.502,4.5039,0,0,0,0,0,0,4.4166,4.4222,4.4204,4.4342,4.4393,4.4442,4.4512,4.4492,4.4556,4.4546,4.4543,4.4556,4.4676,4.4702,4.4635,4.4844,4.4776,4.4792,4.4823,4.4844,4.4861,4.4851,4.4568,0,0,0,0,0,4.4197,4.4277,4.4321,4.4438,4.4464,4.4484,4.4529,4.4525,4.4576,4.4597,4.4628,4.4678,4.4751,4.48,4.4869,4.5009,4.5019,4.5072,4.5089,4.5103,4.5116,4.5189,4.5212,4.4966,4.4966,4.4966,0,0,4.4261,4.4302,4.4352,4.4452,4.4491,4.4571,4.4502,4.4591,4.465,4.461,4.4722,4.4746,4.4802,4.493,4.4988,4.4955,4.5187,4.5117,4.5128,4.5133,4.5203,4.5226,4.5247,4.4974,4.4972,4.4971,0,0,4.4419,4.4459,4.456,4.46,4.466,4.4673,4.4697,4.475,4.4765,4.4878,4.4849,4.4918,4.5046,4.5086,4.5123,4.5296,4.5268,4.5319,4.5406,4.5478,4.5497,4.5514,4.5573,4.5594,4.5332,4.5333,4.5333,0,4.4491,4.4613,4.4614,4.4705,4.4748,4.4717,4.4818,4.4857,4.4936,4.4966,4.4928,4.5086,4.5122,4.5257,4.53,4.5332,4.5357,4.5311,4.5495,4.5512,4.5528,4.5583,4.5606,4.5338,4.5338,4.5337,4.5336,0,4.4697,4.4782,4.4856,4.4934,4.4986,4.5082,4.5095,4.5147,4.5139,4.5155,4.5269,4.531,4.5387,4.542,4.5412,4.5554,4.5531,4.5495,4.5425,4.5557,4.5609,4.563,4.5346,4.5344,4.5342,4.5341,0,0,4.4898,4.4976,4.5003,4.5037,4.5101,4.5166,4.5259,4.5335,4.5379,4.5435,4.5511,4.562,4.5586,4.5628,4.5625,4.5688,4.5818,4.5643,4.5644,4.5671,4.5974,4.5999,4.6024,4.5802,4.5806,4.5809,4.5968,0,4.5058,4.5223,4.5226,4.5376,4.5453,4.5425,4.5505,4.5552,4.557,4.5636,4.5655,4.5731,4.5682,4.5707,4.5768,4.579,4.5879,4.5779,4.5869,4.5873,4.5853,4.6052,4.6079,4.6227,4.5989,4.5993,4.5995,0,4.5266,4.533,4.5488,4.5539,4.5572,4.5645,4.5713,4.5779,4.583,4.5839,4.5886,4.5873,4.5966,4.5896,4.6022,4.5954,4.5991,4.6007,4.6013,4.6019,4.594,4.606,4.6274,4.6295,4.6028,4.6025,4.6023,0,4.5393,4.5519,4.5629,4.5659,4.5723,4.5774,4.5803,4.5851,4.5896,4.5956,4.5985,4.6055,4.6093,4.6146,4.6152,4.6101,4.6278,4.6209,4.6284,4.6284,4.632,4.6317,4.654,4.635,4.635,4.6349,4.6349,0,4.557,4.5667,4.5686,4.5754,4.5861,4.5863,4.5968,4.5993,4.6036,4.6105,4.6086,4.6151,4.6156,4.6223,4.6229,4.633,4.6348,4.6355,4.6355,4.6355,4.6354,4.6377,4.6366,4.6355,4.6354,4.6353,4.6352,0,4.5728,4.5746,4.5863,4.5915,4.593,4.6006,4.6049,4.6112,4.6128,4.6217,4.6238,4.6262,4.634,4.6352,4.6443,4.6446,4.6567,4.6558,4.655,4.6547,4.6621,4.6612,4.6864,4.6896,4.6688,4.669,4.6692,0,4.5838,4.5912,4.5972,4.6018,4.6049,4.6124,4.617,4.6176,4.6224,4.6289,4.6343,4.6419,4.648,4.6605,4.663,4.6699,4.6689,4.6772,4.6699,4.6696,4.6686,4.668,4.6686,4.6785,4.6788,4.6789,4.6791,0,4.603,4.6035,4.6103,4.6174,4.623,4.6286,4.6339,4.6377,4.6389,4.6444,4.6524,4.6572,4.6665,4.6739,4.6808,4.6835,4.6814,4.6815,4.6835,4.6834,4.6825,4.6828,4.6585,4.6808,4.6806,4.6805,4.6804,4.6803,4.6165,4.6228,4.628,4.6356,4.6397,4.6446,4.6508,4.6532,4.6599,4.6676,4.6675,4.6762,4.6811,4.6901,4.6933,4.6999,4.6972,4.7002,4.7009,4.7016,4.7022,4.6818,4.7012,4.7012,4.7011,4.7011,4.7011,0,4.6353,4.6385,4.6455,4.653,4.6589,4.6567,4.6624,4.6675,4.6752,4.68,4.6861,4.6951,4.7023,4.7055,4.7125,4.7172,4.7164,4.719,4.7185,4.7191,4.7044,4.7018,4.7195,4.7195,4.7195,4.7195,4.7195,4.7195,4.6457,4.6562,4.6574,4.6698,4.6729,4.6816,4.685,4.6894,4.6933,4.7035,4.7096,4.7116,4.7157,4.723,4.7294,4.7301,4.7327,4.7356,4.7359,4.722,4.7201,4.7183,4.7158,4.7363,4.7363,4.7499,4.7501,4.7502]},{"header":{"parameterUnit":"m.s-1","parameterCategory":1,"la1":30.2991,"la2":30.254,"lo1":-89.0895,"lo2":-89.0444,"dy":0.0017,"dx":0.0017,"nx":28,"ny":28,"refTime":"2025-07-31T09:00:00:Z","depth":0,"parameterNumber":3,"parameterNumberName":"V-component_of_WINDS"},"data":[0,0,0,0,0,0,0,0,0,0,0,0,0,0,0,0,0,0,0,0,0,0,0,0,0,0,0,0,0,0,0,0,0,0,0,0,0,0,0,0,0,0,0,0,0,0,0,0,0,0,0,0,0,0,0,0,0,0,3.212,3.2122,0,3.2233,3.2234,3.2235,3.2267,3.2267,3.2266,3.2265,3.2377,3.238,3.2384,0,0,0,0,0,0,0,0,0,0,0,0,0,3.1929,3.1932,3.212,3.2122,3.2123,3.2233,3.2234,3.2236,3.2267,3.2267,3.2266,3.2265,3.2376,3.238,3.2384,0,0,0,0,0,0,0,0,0,0,0,0,0,3.2023,3.1933,3.212,3.2152,3.2156,3.2232,3.2234,3.2236,3.2267,3.2267,3.2266,3.2265,3.2374,3.2379,3.2385,3.2436,0,0,3.2401,3.2403,0,0,0,0,0,0,0,0,3.2018,3.203,3.2146,3.215,3.2155,3.2235,3.2207,3.2303,3.2268,3.2225,3.2265,3.2264,3.233,3.2339,3.2362,3.2441,3.2446,3.2401,3.2405,3.2407,3.2408,0,0,0,0,0,0,0,3.2012,3.2026,3.2165,3.2148,3.2153,3.216,3.2172,3.2226,3.2281,3.2229,3.2231,3.2244,3.2332,3.2357,3.2365,3.2447,3.2401,3.2406,3.2409,3.2411,3.2572,3.2573,0,0,0,0,0,0,3.2,3.202,3.2161,3.2168,3.2083,3.2164,3.2178,3.221,3.2281,3.2291,3.2245,3.2245,3.2348,3.2359,3.2369,3.2432,3.2407,3.2412,3.2415,3.257,3.2572,3.2573,0,0,0,0,0,0,3.1996,3.2012,3.2157,3.2095,3.2114,3.2168,3.2204,3.2213,3.2237,3.2293,3.2303,3.226,3.2348,3.2361,3.2419,3.2436,3.2414,3.2419,3.2569,3.2571,3.2572,3.2559,0,0,0,0,0,0,3.199,3.2011,3.2032,3.2095,3.2117,3.2206,3.2205,3.2216,3.2247,3.2249,3.231,3.2319,3.2348,3.2411,3.2424,3.2443,3.2423,3.2568,3.257,3.2572,3.2558,3.256,3.2562,0,0,0,0,0,3.1983,3.2023,3.2033,3.205,3.2145,3.2207,3.2219,3.2253,3.2248,3.2269,3.2305,3.2317,3.2432,3.2416,3.2431,3.2453,3.2567,3.2569,3.2572,3.2558,3.256,3.2562,0,0,0,0,0,0,3.196,3.2032,3.2043,3.2106,3.215,3.2212,3.224,3.2254,3.23,3.23,3.2338,3.2352,3.2406,3.2435,3.2416,3.2505,3.25,3.2505,3.2484,3.2486,3.2488,3.248,3.2428,0,0,0,0,0,3.1962,3.2008,3.2068,3.2117,3.2139,3.2185,3.2213,3.2235,3.2282,3.2301,3.2341,3.2385,3.2431,3.246,3.2506,3.2563,3.2576,3.2585,3.2586,3.2588,3.2592,3.2622,3.2627,3.2581,3.2581,3.2581,0,0,3.1967,3.2012,3.2038,3.2113,3.215,3.2195,3.2201,3.2248,3.2281,3.2308,3.2365,3.2395,3.2446,3.2503,3.253,3.2529,3.2607,3.2591,3.2591,3.2595,3.2625,3.2629,3.2633,3.2583,3.2582,3.2582,0,0,3.1998,3.2038,3.2082,3.2119,3.2175,3.2205,3.2216,3.2276,3.2297,3.2355,3.2375,3.2414,3.2493,3.2528,3.2557,3.26,3.2612,3.2613,3.2622,3.2651,3.2655,3.2658,3.2672,3.2677,3.2617,3.2617,3.2617,0,3.1996,3.2066,3.2102,3.2149,3.218,3.2207,3.2251,3.2285,3.2352,3.2372,3.2371,3.2469,3.2506,3.2571,3.2581,3.2603,3.2615,3.2606,3.2652,3.2656,3.2659,3.2673,3.2678,3.2617,3.2617,3.2617,3.2617,0,3.2061,3.2109,3.2137,3.2202,3.2237,3.2282,3.2323,3.2354,3.2372,3.2402,3.2459,3.2504,3.2559,3.2576,3.2594,3.2643,3.264,3.2644,3.264,3.2663,3.2676,3.2682,3.2616,3.2617,3.2617,3.2617,0,0,3.2081,3.2165,3.2175,3.2204,3.2267,3.2304,3.2349,3.2403,3.2428,3.2473,3.251,3.2576,3.258,3.2612,3.2635,3.266,3.269,3.2662,3.2663,3.2664,3.2744,3.2739,3.2745,3.2699,3.27,3.2701,3.2739,0,3.2119,3.2203,3.2236,3.2302,3.2346,3.2371,3.241,3.2452,3.2481,3.2521,3.2552,3.2598,3.2601,3.262,3.2647,3.268,3.2706,3.2678,3.2733,3.2734,3.2718,3.2752,3.2748,3.2782,3.2745,3.2746,3.2746,0,3.2176,3.2222,3.2293,3.2349,3.2369,3.2404,3.2455,3.2493,3.254,3.2559,3.2595,3.2615,3.2662,3.2655,3.2718,3.2698,3.2722,3.2742,3.2744,3.275,3.2741,3.2758,3.2794,3.2799,3.2755,3.2755,3.2754,0,3.2182,3.2262,3.2314,3.2338,3.2406,3.2429,3.2458,3.2505,3.2534,3.2579,3.2598,3.2647,3.2673,3.271,3.2742,3.2734,3.2802,3.2798,3.2818,3.2817,3.2831,3.2829,3.287,3.2847,3.2847,3.2847,3.2847,0,3.2221,3.2263,3.2318,3.235,3.2397,3.2434,3.2479,3.251,3.2551,3.2588,3.2612,3.2647,3.2688,3.2727,3.2753,3.28,3.2812,3.2828,3.2834,3.2825,3.2823,3.2841,3.2839,3.2849,3.2848,3.2848,3.2848,0,3.2235,3.2274,3.2333,3.2391,3.2407,3.2439,3.2489,3.252,3.255,3.2596,3.2609,3.2656,3.2703,3.2739,3.28,3.2817,3.2867,3.2875,3.2852,3.2855,3.2872,3.2869,3.2925,3.2934,3.2906,3.2906,3.2906,0,3.2258,3.2291,3.2353,3.238,3.2409,3.2452,3.2483,3.2519,3.255,3.2605,3.2629,3.2678,3.2719,3.2793,3.2831,3.2877,3.2885,3.2902,3.2892,3.2882,3.2884,3.2881,3.2884,3.2902,3.2903,3.2903,3.2903,0,3.2292,3.2309,3.2353,3.2402,3.2438,3.2479,3.252,3.254,3.2584,3.2617,3.2666,3.2697,3.276,3.2807,3.2857,3.2886,3.2901,3.2905,3.2912,3.2903,3.2888,3.2895,3.2854,3.2904,3.2904,3.2904,3.2904,3.2904,3.2311,3.234,3.2389,3.2436,3.247,3.2508,3.254,3.2573,3.2615,3.2669,3.2688,3.2738,3.2782,3.2851,3.288,3.2918,3.2919,3.2929,3.2931,3.2933,3.2931,3.2883,3.2927,3.2927,3.2927,3.2927,3.2928,0,3.2345,3.2377,3.242,3.2477,3.2513,3.2526,3.2571,3.2601,3.2645,3.2685,3.2725,3.278,3.2826,3.2868,3.2915,3.2938,3.2946,3.2949,3.2947,3.2953,3.2929,3.2918,3.2942,3.2941,3.2941,3.2941,3.2941,3.2941,3.2368,3.2418,3.2441,3.2508,3.254,3.259,3.2614,3.2648,3.2681,3.2742,3.278,3.2807,3.2848,3.2898,3.294,3.2951,3.2967,3.2968,3.298,3.2957,3.2955,3.2953,3.2943,3.2971,3.2972,3.3001,3.3002,3.3002]}]]